User: anonymous   Login
Location: Unspecified
(0.0000°N, 0.0000°E)
Time: 07:13:34
(UTC+00:00)
Language:

USA 179 - Orbit

View from above orbital plane
View from above orbital plane
View from above satellite
View from above satellite

Ground track
Ground track

The orbit data is extracted from the following two-line orbital elements,

1 28384U 04034A   18325.47900793 0.00000000  00000-0  00000-0 0    07
2 28384  63.4393 236.6710 7133044 272.6036  14.9840  2.00620000    04
Epoch (UTC): 21 November 2018 11:29:46
Eccentricity: 0.7133044
inclination: 63.4393°
perigee height: 1235 km
apogee height: 39119 km
right ascension of ascending node: 236.6710°
argument of perigee: 272.6036°
revolutions per day: 2.00620000
mean anomaly at epoch: 14.9840°
orbit number at epoch: 0

The dashed part of the orbit path shows where the satellite is in the earth's shadow,  

DLR